N3HCP Weather Reports


time (UTC)temp
C
wind
direction
speed
KPH
gust
KPH
rain 1hr
cm
rain 24hr
cm
rain mn
cm
humidity
%
barometer
mb
20260505011537 17 152 3.2 11.3 0.00 0.00 0.00 55 1007.9
20260505011036 17 145 3.2 6.4 0.00 0.00 0.00 55 1007.9
20260505010534 17 143 3.2 16.1 0.00 0.00 0.00 55 1007.9
20260505010035 17 148 3.2 16.1 0.00 0.00 0.00 55 1007.9
20260505005534 17 197 3.2 9.7 0.00 0.00 0.00 55 1007.8
20260505005033 17 124 1.6 12.9 0.00 0.00 0.00 56 1007.8
20260505004532 17 215 1.6 8.0 0.00 0.00 0.00 55 1007.8
20260505004031 17 168 1.6 8.0 0.00 0.00 0.00 55 1007.8
20260505003533 17 113 1.6 8.0 0.00 0.00 0.00 55 1007.7
20260505003033 17 139 1.6 6.4 0.00 0.00 0.00 55 1007.9
20260505002530 18 151 0.0 4.8 0.00 0.00 0.00 55 1007.8
20260505002029 18 152 1.6 4.8 0.00 0.00 0.00 54 1007.7
20260505001530 18 124 1.6 9.7 0.00 0.00 0.00 54 1007.7
20260505001029 18 165 3.2 9.7 0.00 0.00 0.00 53 1007.7
20260505000531 18 136 1.6 8.0 0.00 0.00 0.00 53 1007.7
20260505000029 18 158 1.6 9.7 0.00 0.00 0.00 53 1007.7
20260504235525 18 160 3.2 9.7 0.00 0.00 0.00 53 1007.7
20260504235025 18 115 1.6 6.4 0.00 0.00 0.00 53 1007.6
20260504234524 19 111 1.6 6.4 0.00 0.00 0.00 52 1007.5
20260504234029 19 143 1.6 4.8 0.00 0.00 0.00 52 1007.5
20260504233523 19 167 0.0 6.4 0.00 0.00 0.00 51 1007.4
20260504233022 20 154 1.6 8.0 0.00 0.00 0.00 50 1007.3
20260504232522 20 152 1.6 6.4 0.00 0.00 0.00 49 1007.2
20260504232021 20 149 1.6 16.1 0.00 0.00 0.00 49 1007.3
20260504231520 20 116 3.2 14.5 0.00 0.00 0.00 48 1007.3
20260504231020 21 165 1.6 12.9 0.00 0.00 0.00 48 1007.3
20260504230520 21 206 3.2 12.9 0.00 0.00 0.00 47 1007.3
20260504230018 22 124 3.2 9.7 0.00 0.00 0.00 46 1007.2
20260504225518 22 201 1.6 8.0 0.00 0.00 0.00 45 1007.2
20260504225017 22 203 1.6 8.0 0.00 0.00 0.00 45 1007.2
20260504224519 22 168 3.2 12.9 0.00 0.00 0.00 44 1007.2
20260504224016 22 171 3.2 12.9 0.00 0.00 0.00 45 1007.2
20260504223515 22 148 3.2 11.3 0.00 0.00 0.00 44 1007.3
20260504223015 22 143 1.6 8.0 0.00 0.00 0.00 45 1007.3
20260504222513 22 210 0.0 9.7 0.00 0.00 0.00 44 1007.2
20260504222016 22 237 1.6 11.3 0.00 0.00 0.00 44 1007.2
20260504221512 22 157 3.2 11.3 0.00 0.00 0.00 43 1007.3
20260504221011 22 168 0.0 6.4 0.00 0.00 0.00 43 1007.3
20260504220512 23 179 1.6 6.4 0.00 0.00 0.00 44 1007.4
20260504220010 23 150 1.6 11.3 0.00 0.00 0.00 43 1007.4
20260504215508 22 298 1.6 25.7 0.00 0.00 0.00 44 1007.3
20260504215007 22 252 4.8 25.7 0.00 0.00 0.00 42 1007.5
20260504214517 23 120 3.2 17.7 0.00 0.00 0.00 42 1007.6
20260504214012 23 229 4.8 12.9 0.00 0.00 0.00 42 1007.5
20260504213505 23 221 1.6 8.0 0.00 0.00 0.00 44 1007.4
20260504213004 23 212 1.6 9.7 0.00 0.00 0.00 43 1007.5
20260504212603 23 176 0.0 9.7 0.00 0.00 0.00 43 1007.5
20260504212002 23 203 3.2 12.9 0.00 0.00 0.00 41 1007.5
20260504211600 23 163 0.0 12.9 0.00 0.00 0.00 42 1007.5
20260504211101 23 193 1.6 14.5 0.00 0.00 0.00 42 1007.4
20260504210558 23 186 4.8 14.5 0.00 0.00 0.00 42 1007.6
20260504210059 23 203 0.0 6.4 0.00 0.00 0.00 44 1007.6
20260504205555 22 252 1.6 6.4 0.00 0.00 0.00 44 1007.6
20260504205056 22 249 0.0 25.7 0.00 0.00 0.00 44 1007.6
20260504204553 22 221 1.6 25.7 0.00 0.00 0.00 43 1007.7
20260504204052 22 213 1.6 16.1 0.00 0.00 0.00 45 1007.7
20260504203550 22 224 3.2 14.5 0.00 0.00 0.00 43 1007.6
20260504203048 22 248 4.8 14.5 0.00 0.00 0.00 43 1007.7
20260504202547 22 202 3.2 14.5 0.00 0.00 0.00 45 1007.7
20260504202046 22 233 1.6 12.9 0.00 0.00 0.00 44 1008.0
20260504201559 22 207 1.6 17.7 0.00 0.00 0.00 44 1008.0
20260504201047 22 228 4.8 17.7 0.00 0.00 0.00 45 1008.0
20260504200543 22 155 0.0 37.0 0.00 0.00 0.00 45 1008.2
20260504200045 22 239 4.8 37.0 0.00 0.00 0.00 44 1008.3
20260504195540 22 250 3.2 17.7 0.00 0.00 0.00 43 1008.3
20260504195039 22 203 4.8 17.7 0.00 0.00 0.00 45 1008.4
20260504194541 22 233 1.6 20.9 0.00 0.00 0.00 46 1008.5
20260504194036 22 172 1.6 12.9 0.00 0.00 0.00 44 1008.5
20260504193534 22 235 1.6 17.7 0.00 0.00 0.00 45 1008.4
20260504193034 22 218 3.2 20.9 0.00 0.00 0.00 47 1008.5
20260504192533 22 238 4.8 27.4 0.00 0.00 0.00 43 1008.5
20260504192032 22 235 6.4 27.4 0.00 0.00 0.00 42 1008.6
20260504191530 22 228 1.6 16.1 0.00 0.00 0.00 45 1008.7
20260504191030 22 141 4.8 19.3 0.00 0.00 0.00 45 1008.7
20260504190531 21 237 8.0 19.3 0.00 0.00 0.00 43 1008.8
20260504190028 22 237 6.4 11.3 0.00 0.00 0.00 44 1009.0
20260504185525 22 199 4.8 9.7 0.00 0.00 0.00 42 1008.9
20260504185023 22 155 1.6 25.7 0.00 0.00 0.00 47 1009.0
20260504184524 22 236 4.8 25.7 0.00 0.00 0.00 43 1009.1
20260504184021 22 149 1.6 12.9 0.00 0.00 0.00 46 1009.1
20260504183520 22 240 1.6 12.9 0.00 0.00 0.00 46 1009.1
20260504183018 22 214 4.8 11.3 0.00 0.00 0.00 45 1009.2
20260504182515 21 198 3.2 17.7 0.00 0.00 0.00 44 1009.3
20260504182014 21 200 1.6 22.5 0.00 0.00 0.00 45 1009.5
20260504181523 21 146 4.8 14.5 0.00 0.00 0.00 44 1009.4
20260504181015 21 210 1.6 11.3 0.00 0.00 0.00 45 1009.6
20260504180511 21 226 1.6 11.3 0.00 0.00 0.00 44 1009.7
20260504180009 21 262 3.2 11.3 0.00 0.00 0.00 44 1009.7
20260504175508 21 159 3.2 9.7 0.00 0.00 0.00 44 1009.7
20260504175107 21 236 1.6 8.0 0.00 0.00 0.00 45 1009.7
20260504174506 21 173 3.2 17.7 0.00 0.00 0.00 44 1009.8
20260504174004 21 188 1.6 19.3 0.00 0.00 0.00 43 1009.8
20260504173504 21 178 4.8 19.3 0.00 0.00 0.00 45 1009.9
20260504173002 21 335 4.8 17.7 0.00 0.00 0.00 44 1009.9
20260504172600 21 262 3.2 17.7 0.00 0.00 0.00 45 1010.0
20260504172100 20 217 1.6 16.1 0.00 0.00 0.00 47 1010.1
20260504171608 20 217 4.8 16.1 0.00 0.00 0.00 44 1010.2
20260504171057 20 127 0.0 16.1 0.00 0.00 0.00 47 1010.3
20260504170554 20 196 6.4 24.1 0.00 0.00 0.00 44 1010.4
20260504151024 17 136 6.4 12.9 0.00 0.00 0.00 46 1011.9
20260504150523 17 261 4.8 11.3 0.00 0.00 0.00 46 1012.0
20260504141107 16 221 1.6 14.5 0.00 0.00 0.00 50 1012.5
20260504140508 16 221 3.2 14.5 0.00 0.00 0.00 51 1012.5
20260504130551 14 166 0.0 4.8 0.00 0.00 0.00 54 1012.7
20260504110519 10 88 0.0 1.6 0.00 0.00 0.00 56 1012.7
20260504100511 7 72 0.0 3.2 0.00 0.00 0.00 63 1012.6
20260504081547 8 157 0.0 3.2 0.00 0.00 0.00 60 1013.0
20260504081048 8 148 0.0 3.2 0.00 0.00 0.00 60 1012.9
20260504080546 8 160 0.0 3.2 0.00 0.00 0.00 60 1012.9
20260504050517 9 138 0.0 3.2 0.00 0.00 0.00 58 1013.1
20260504050014 9 234 0.0 1.6 0.00 0.00 0.00 58 1013.1
20260504045515 9 234 0.0 1.6 0.00 0.00 0.00 57 1013.1
20260504045013 9 253 0.0 3.2 0.00 0.00 0.00 57 1013.1
20260504044513 9 243 0.0 3.2 0.00 0.00 0.00 57 1013.1
20260504044012 9 265 0.0 1.6 0.00 0.00 0.00 57 1013.1
20260504043510 10 127 0.0 1.6 0.00 0.00 0.00 57 1013.1
20260504043010 10 132 0.0 4.8 0.00 0.00 0.00 55 1013.2
20260504042509 10 250 0.0 11.3 0.00 0.00 0.00 55 1013.1
20260504042006 10 260 0.0 1.6 0.00 0.00 0.00 56 1013.1
20260504041506 10 272 0.0 9.7 0.00 0.00 0.00 56 1013.2
20260504041005 10 264 1.6 9.7 0.00 0.00 0.00 55 1013.1
20260504040504 10 304 0.0 3.2 0.00 0.00 0.00 56 1013.0
20260504040003 10 235 0.0 8.0 0.00 0.00 0.00 56 1013.0
20260504035503 10 224 0.0 4.8 0.00 0.00 0.00 57 1013.0
20260504035001 9 281 0.0 4.8 0.00 0.00 0.00 56 1012.8
20260504034501 9 266 0.0 1.6 0.00 0.00 0.00 57 1012.8
20260504034100 9 212 0.0 1.6 0.00 0.00 0.00 58 1012.8
20260504033559 9 231 0.0 1.6 0.00 0.00 0.00 58 1012.8
20260504033116 9 197 0.0 0.0 0.00 0.00 0.00 58 1012.7
20260504032559 9 193 0.0 0.0 0.00 0.00 0.00 58 1012.8
20260504032058 9 193 0.0 1.6 0.00 0.00 0.00 58 1012.7
20260504031603 9 231 0.0 1.6 0.00 0.00 0.00 58 1012.7
20260504031100 8 254 0.0 1.6 0.00 0.00 0.00 58 1012.7
20260504030555 8 238 0.0 3.2 0.00 0.00 0.00 59 1012.6
20260504030055 8 231 0.0 3.2 0.00 0.00 0.00 59 1012.6
20260504025554 9 221 0.0 0.0 0.00 0.00 0.00 59 1012.6
20260504025054 9 221 0.0 1.6 0.00 0.00 0.00 58 1012.6
20260504024600 9 221 0.0 1.6 0.00 0.00 0.00 58 1012.6
20260504024052 8 221 0.0 3.2 0.00 0.00 0.00 58 1012.7
20260504023556 8 260 0.0 3.2 0.00 0.00 0.00 60 1012.6
20260504023051 7 254 0.0 0.0 0.00 0.00 0.00 62 1012.7
20260504022551 7 254 0.0 0.0 0.00 0.00 0.00 62 1012.7
20260504022050 7 254 0.0 0.0 0.00 0.00 0.00 62 1012.6
20260504021554 7 254 0.0 1.6 0.00 0.00 0.00 61 1012.7
20260504021052 7 254 0.0 0.0 0.00 0.00 0.00 62 1012.8
20260504020547 7 254 0.0 0.0 0.00 0.00 0.00 62 1012.7
20260504020050 7 254 0.0 0.0 0.00 0.00 0.00 62 1012.7
20260504015546 8 254 0.0 0.0 0.00 0.00 0.00 61 1012.7
20260504015047 8 254 0.0 0.0 0.00 0.00 0.00 62 1012.7
20260504014546 8 254 0.0 0.0 0.00 0.00 0.00 61 1012.7
20260504014046 8 254 0.0 0.0 0.00 0.00 0.00 60 1012.7
20260504013545 8 254 0.0 0.0 0.00 0.00 0.00 60 1012.5
20260504013048 8 254 0.0 0.0 0.00 0.00 0.00 61 1012.6
20260504012546 8 254 0.0 0.0 0.00 0.00 0.00 60 1012.6
20260504012044 8 254 0.0 0.0 0.00 0.00 0.00 59 1012.4